Regional Weather Roundup
Issued by NWS

Home | Current Version | Previous Version | Graphics & Text | Print | Product List | Glossary On
Versions: 1 2 3 4 5 6 7 8 9 10 11 12 13 14 15 16 17 18 19 20 21 22 23 24 25 26 27 28 29 30 31 32 33 34 35 36 37 38 39 40 41 42 43 44 45 46 47 48 49 50
000
ASUS43 KOAX 270110
RWRNE

WEATHER ROUNDUP FOR NEBRASKA
NATIONAL WEATHER SERVICE OMAHA NE
800 PM CDT SAT MAY 26 2018

NOTES: SATELLITE DATA IS BEING USED TO AUGMENT CLOUD COVER ABOVE
       12000 FEET.
       "FAIR" INDICATES FEW OR NO CLOUDS BELOW 12,000 FEET WITH NO
       SIGNIFICANT WEATHER AND/OR OBSTRUCTIONS TO VISIBILITY.


NEZ001>004-019>022-054>056-270200-
NEBRASKA PANHANDLE

CITY           SKY/WX    TMP DP  RH WIND       PRES   REMARKS
SCOTTSBLUFF    PTSUNNY   85  60  42 SE6       29.72S
ALLIANCE       PTSUNNY   83  50  31 SE24G31   29.74S
CHADRON        MOSUNNY   84  59  42 SE9       29.69S
GORDON         FAIR      86  53  31 SE10      29.75F
KIMBALL        CLOUDY    79  48  33 SE14      29.80F
SIDNEY         PTSUNNY   82  47  29 SE16      29.80S
$$

NEZ057>060-069>072-079>082-270200-
SOUTHWEST NEBRASKA

CITY           SKY/WX    TMP DP  RH WIND       PRES   REMARKS
NORTH PLATTE   PTSUNNY   86  60  41 S7        29.78R
IMPERIAL       CLOUDY    88  45  22 S15G25    29.78S
LEXINGTON      PTCLDY    84  57  39 SE8       29.79R
MCCOOK         MOCLDY    87  51  28 SE14      29.77S
OGALLALA       PTSUNNY   86  48  27 SE9       29.77S
$$

NEZ005>010-023>029-035>040-094-270200-
NORTH CENTRAL NEBRASKA

CITY           SKY/WX    TMP DP  RH WIND       PRES   REMARKS
VALENTINE      SUNNY     90  60  36 SE13      29.75S
AINSWORTH      SUNNY     85  64  49 SE8       29.78S
BROKEN BOW     PTCLDY    86  65  49 SE9       29.79S
O`NEILL        CLEAR     90  68  48 CALM      29.77S HX  94
ORD            CLEAR     91  61  36 S3        29.75S HX  91
THEDFORD       MOSUNNY   86  61  42 SE7       29.79S
$$

NEZ041-046>049-061>064-073>077-083>087-270200-
SOUTH CENTRAL NEBRASKA

CITY           SKY/WX    TMP DP  RH WIND       PRES   REMARKS
GRAND ISLAND   CLEAR     92  58  31 SW7       29.77R HX  91
AURORA         CLEAR     92  53  26 SW6       29.76S HX  90
HASTINGS       CLEAR     92  56  29 S7        29.79R HX  90
HEBRON         CLEAR     94  56  28 SW10      29.76R HX  92
HOLDREGE       CLEAR     89  56  32 S12G17    29.79S
KEARNEY        CLEAR     88  59  37 S10       29.79S
YORK           CLEAR     95  57  28 SW5       29.75S HX  94
$$

NEZ011>018-030>034-042>045-270200-
NORTHEAST NEBRASKA

CITY           SKY/WX    TMP DP  RH WIND       PRES   REMARKS
NORFOLK        CLEAR     89  61  38 E6        29.72S
ALBION         CLEAR     93  60  32 SW3       29.76S HX  92
BLAIR          CLEAR     92  59  33 E3        29.75S HX  91
COLUMBUS       CLEAR     96  55  25 SE5       29.74S HX  94
FREMONT        CLEAR     94  56  27 E7        29.74R HX  93
TEKAMAH        CLEAR     92  56  29 E8        29.72S HX  90
WAYNE          CLEAR     86  58  39 NE8       29.74R
$$

NEZ050>053-065>068-078-088>093-270200-
SOUTHEAST NEBRASKA

CITY           SKY/WX    TMP DP  RH WIND       PRES   REMARKS
LINCOLN        CLEAR     94  59  31 CALM      29.74R HX  93
OMAHA EPPLEY   PTCLDY    93  65  39 E6        29.73R HX  95
BEATRICE       CLOUDY    92  62  36 SW6       29.75R HX  92
FALLS CITY     CLOUDY    95  57  27 NE3       29.72R HX  94
NEBRASKA CITY  CLEAR     92  60  33 E3        29.74R HX  92
PLATTSMOUTH    CLEAR     93  59  31 E3        29.75R HX  92
$$

NEZ044-045-051>053-067-270200-
OMAHA AREA

CITY           SKY/WX    TMP DP  RH WIND       PRES   REMARKS
OMAHA EPPLEY   PTCLDY    93  65  39 E6        29.73R HX  95
BLAIR          CLEAR     92  59  33 E3        29.75S HX  91
FREMONT        CLEAR     94  56  27 E7        29.74R HX  93
MILLARD        CLEAR     94  62  33 E3        29.73S HX  95
OFFUTT AFB     CLEAR     92  59  33 NE3       29.73R HX  91
PLATTSMOUTH    CLEAR     93  59  31 E3        29.75R HX  92
WAHOO          FAIR      93  51  23 E7        29.73S HX  90
$$



USA.gov is the U.S. government's official web portal to all federal, state and local government web resources and services.